Location: Unspecified
(50.7693°N, 0.0000°E)
Time: 17:27:54
(UTC+00:00)

Vanguard 1 Rocket - Pass Details

Date: 29 June 2019
Orbit: 652 x 4224 km, 34.3° (Epoch: 16 August)

Event Time Altitude Azimuth Distance (km) Brightness Sun altitude
Rises 18:50:10 0° 263° (W) 7,513 13.2 10.8°
Reaches altitude 10° 18:56:36 10° 256° (WSW) 5,922 12.5 9.9°
Maximum altitude 19:09:48 32° 203° (SSW) 3,028 10.1 8.0°
Drops below altitude 10° 19:17:34 10° 144° (SE) 3,433 9.8 6.9°
Sets 19:20:12 0° 133° (SE) 4,066 10.1 6.6°
